DW0126 Weather Reports


Display with metric or nautical units.
time (UTC)temp
F
wind
direction
speed
MPH
gust
MPH
rain 1hr
in
rain 24hr
in
rain mn
in
humidity
%
barometer
mb
20260901001717 79 0 4.0 6.0 0.00 0.00 0.00 43 1007.3
20260901000717 79 23 3.0 5.0 0.00 0.00 0.00 43 1007.4
20260831235737 80 45 4.0 6.0 0.00 0.00 0.00 42 1007.4
20260831234716 80 0 5.0 7.0 0.00 0.00 0.00 41 1007.5
20260831233717 80 45 4.0 7.0 0.00 0.00 0.00 42 1007.5
20260831232716 80 45 3.0 6.0 0.00 0.00 0.00 42 1007.6
20260831231717 80 0 2.0 4.0 0.00 0.00 0.00 43 1007.7
20260831230716 79 315 4.0 7.0 0.00 0.00 0.00 43 1007.7
20260831225717 79 45 3.0 5.0 0.00 0.00 0.00 44 1007.8
20260831224736 79 68 5.0 7.0 0.00 0.00 0.00 45 1007.9
20260831223716 78 0 4.0 7.0 0.00 0.00 0.00 45 1008.0
20260831222736 78 23 3.0 6.0 0.00 0.00 0.00 46 1008.1
20260831221736 78 45 4.0 7.0 0.00 0.00 0.00 47 1008.3
20260831220717 77 0 4.0 7.0 0.00 0.00 0.00 48 1008.5
20260831215716 77 23 3.0 6.0 0.00 0.00 0.00 48 1008.6
20260831214716 77 0 3.0 6.0 0.00 0.00 0.00 49 1008.7
20260831213716 77 23 5.0 8.0 0.00 0.00 0.00 49 1008.9
20260831212717 77 23 3.0 6.0 0.00 0.00 0.00 49 1009.0
20260831211716 76 23 4.0 7.0 0.00 0.00 0.00 51 1009.0
20260831210717 76 23 5.0 8.0 0.00 0.00 0.00 51 1009.2
20260831205716 75 23 3.0 6.0 0.00 0.00 0.00 52 1009.2
20260831204716 75 23 3.0 5.0 0.00 0.00 0.00 52 1009.3
20260831203736 75 23 2.0 3.0 0.00 0.00 0.00 53 1009.3
20260831202717 74 23 3.0 6.0 0.00 0.00 0.00 55 1009.4
20260831201717 74 45 5.0 9.0 0.00 0.00 0.00 54 1009.6
20260831200906 74 23 5.0 8.0 0.00 0.00 0.00 56 1009.8
20260831200512 74 23 5.0 8.0 0.00 0.00 0.00 56 1009.9
20260831195617 73 23 3.0 6.0 0.00 0.00 0.00 57 1010.0
20260831194616 72 315 4.0 8.0 0.00 0.00 0.00 58 1010.1
20260831193636 72 68 6.0 10.0 0.00 0.00 0.00 59 1010.3
20260831192617 71 45 6.0 10.0 0.00 0.00 0.00 60 1010.4
20260831191617 71 23 4.0 6.0 0.00 0.00 0.00 62 1010.5
20260831190617 71 23 4.0 7.0 0.00 0.00 0.00 62 1010.7
20260831185617 71 23 3.0 5.0 0.00 0.00 0.00 63 1010.8
20260831184616 69 23 3.0 5.0 0.00 0.00 0.00 65 1010.9
20260831183616 68 23 5.0 8.0 0.00 0.00 0.00 67 1011.1
20260831182617 68 0 3.0 6.0 0.00 0.00 0.00 68 1011.1
20260831181616 67 23 7.0 11.0 0.00 0.00 0.00 69 1011.2
20260831180637 66 45 4.0 6.0 0.00 0.00 0.00 69 1011.4
20260831175617 66 45 6.0 10.0 0.00 0.00 0.00 71 1011.5
20260831174617 65 45 3.0 6.0 0.00 0.00 0.00 72 1011.5
20260831173616 65 23 6.0 9.0 0.00 0.00 0.00 72 1011.7
20260831172616 64 23 4.0 10.0 0.00 0.00 0.00 73 1011.7
20260831171617 64 23 5.0 8.0 0.00 0.00 0.00 73 1011.9
20260831170617 64 23 6.0 9.0 0.00 0.00 0.00 74 1011.9
20260831165636 63 45 6.0 8.0 0.00 0.00 0.00 74 1011.8
20260831164617 63 23 6.0 9.0 0.00 0.00 0.00 75 1011.9
20260831163617 63 45 6.0 10.0 0.00 0.00 0.00 76 1012.1
20260831162616 62 23 4.0 7.0 0.00 0.00 0.00 78 1012.1
20260831161657 62 45 6.0 9.0 0.00 0.00 0.00 80 1012.2
20260831160637 61 23 5.0 7.0 0.00 0.00 0.00 81 1012.3
20260831155657 61 23 5.0 8.0 0.00 0.00 0.00 82 1012.4
20260831154617 60 23 5.0 9.0 0.00 0.00 0.00 84 1012.5
20260831153616 59 45 4.0 6.0 0.00 0.00 0.00 85 1012.6
20260831152616 58 23 4.0 6.0 0.00 0.00 0.00 86 1012.7
20260831151636 57 68 2.0 5.0 0.00 0.00 0.00 87 1012.6
20260831150616 56 68 2.0 5.0 0.00 0.00 0.00 89 1012.8
20260831145616 54 68 3.0 6.0 0.00 0.00 0.00 90 1012.8
20260831144617 53 68 2.0 3.0 0.00 0.00 0.00 91 1012.7
20260831143616 53 68 2.0 3.0 0.00 0.00 0.00 90 1012.8
20260831142617 52 45 3.0 5.0 0.00 0.00 0.00 90 1012.8
20260831141636 51 45 3.0 4.0 0.00 0.00 0.00 91 1012.9
20260831140616 51 45 2.0 4.0 0.00 0.00 0.00 90 1012.9
20260831135617 51 23 2.0 2.0 0.00 0.00 0.00 90 1012.8
20260831134616 50 23 2.0 3.0 0.00 0.00 0.00 90 1012.8
20260831133716 50 0.0 1.0 0.00 0.00 0.00 89 1012.7
20260831132716 50 45 1.0 3.0 0.00 0.00 0.00 89 1012.8
20260831131716 50 0.0 0.0 0.00 0.00 0.00 89 1012.9
20260831130716 50 0.0 0.0 0.00 0.00 0.00 88 1012.9
20260831125716 51 0.0 0.0 0.00 0.00 0.00 87 1013.1
20260831124736 52 0.0 0.0 0.00 0.00 0.00 87 1013.2
20260831123736 51 0.0 0.0 0.00 0.00 0.00 88 1013.3
20260831122717 51 0.0 0.0 0.00 0.00 0.00 88 1013.3
20260831121716 51 0.0 0.0 0.00 0.00 0.00 89 1013.3
20260831120716 51 0.0 0.0 0.00 0.00 0.00 87 1013.4
20260831115716 52 0.0 0.0 0.00 0.00 0.00 88 1013.5
20260831114716 52 0.0 0.0 0.00 0.00 0.00 88 1013.5
20260831113717 51 0.0 0.0 0.00 0.00 0.00 88 1013.4
20260831112716 52 0.0 0.0 0.00 0.00 0.00 88 1013.6
20260831111736 52 0.0 0.0 0.00 0.00 0.00 88 1013.5
20260831110736 51 0.0 0.0 0.00 0.00 0.00 88 1013.7
20260831105717 52 0.0 0.0 0.00 0.00 0.00 87 1013.7
20260831104717 52 0.0 0.0 0.00 0.00 0.00 87 1013.7
20260831103716 52 0.0 0.0 0.00 0.00 0.00 87 1013.8
20260831102717 52 0.0 0.0 0.00 0.00 0.00 87 1013.9
20260831101736 52 0.0 0.0 0.00 0.00 0.00 87 1014.0
20260831100716 52 0.0 0.0 0.00 0.00 0.00 86 1014.1
20260831095736 52 0.0 0.0 0.00 0.00 0.00 86 1014.2
20260831094716 53 0.0 0.0 0.00 0.00 0.00 85 1014.2
20260831093717 53 0.0 0.0 0.00 0.00 0.00 84 1014.3
20260831092736 53 0.0 0.0 0.00 0.00 0.00 84 1014.5
20260831091716 54 0.0 0.0 0.00 0.00 0.00 84 1014.4
20260831090716 54 0.0 0.0 0.00 0.00 0.00 84 1014.4
20260831085716 53 0.0 0.0 0.00 0.00 0.00 85 1014.4
20260831084716 53 0.0 0.0 0.00 0.00 0.00 86 1014.5
20260831083717 53 0.0 0.0 0.00 0.00 0.00 86 1014.6
20260831082716 53 0.0 0.0 0.00 0.00 0.00 86 1014.7
20260831081716 53 0.0 0.0 0.00 0.00 0.00 85 1014.9
20260831080716 53 0.0 0.0 0.00 0.00 0.00 85 1014.8
20260831075716 53 0.0 0.0 0.00 0.00 0.00 84 1014.8
20260831074716 54 0.0 0.0 0.00 0.00 0.00 85 1014.9
20260831073717 54 0.0 0.0 0.00 0.00 0.00 84 1015.1
20260831072716 54 0.0 0.0 0.00 0.00 0.00 84 1015.2
20260831071736 54 0.0 0.0 0.00 0.00 0.00 84 1015.3
20260831070716 54 0.0 0.0 0.00 0.00 0.00 83 1015.3
20260831065717 55 0.0 0.0 0.00 0.00 0.00 82 1015.4
20260831064717 55 0.0 0.0 0.00 0.00 0.00 82 1015.5
20260831063717 55 0.0 0.0 0.00 0.00 0.00 81 1015.5
20260831062717 56 0.0 0.0 0.00 0.00 0.00 80 1015.6
20260831061737 56 0.0 0.0 0.00 0.00 0.00 80 1015.8
20260831060737 57 0.0 0.0 0.00 0.00 0.00 78 1015.8
20260831055717 57 0.0 0.0 0.00 0.00 0.00 77 1015.8
20260831054717 57 0.0 0.0 0.00 0.00 0.00 78 1015.9
20260831053717 58 0.0 0.0 0.00 0.00 0.00 76 1015.9
20260831052737 59 0.0 0.0 0.00 0.00 0.00 74 1016.1
20260831051717 59 0.0 0.0 0.00 0.00 0.00 76 1016.1
20260831050717 59 0.0 0.0 0.00 0.00 0.00 75 1016.2
20260831045717 59 0.0 0.0 0.00 0.00 0.00 74 1016.2
20260831044717 60 0.0 1.0 0.00 0.00 0.00 73 1016.1
20260831043717 60 0.0 0.0 0.00 0.00 0.00 72 1016.2
20260831042717 61 0.0 0.0 0.00 0.00 0.00 70 1016.3
20260831041717 61 0.0 0.0 0.00 0.00 0.00 71 1016.2
20260831040717 61 0.0 0.0 0.00 0.00 0.00 70 1016.3
20260831035717 62 0.0 0.0 0.00 0.00 0.00 68 1016.2
20260831034717 62 0.0 0.0 0.00 0.00 0.00 68 1016.1
20260831033717 63 0.0 0.0 0.00 0.00 0.00 68 1016.1
20260831032717 65 0.0 0.0 0.00 0.00 0.00 64 1016.2
20260831031757 66 0.0 0.0 0.00 0.00 0.00 61 1016.1
20260831030717 67 0.0 0.0 0.00 0.00 0.00 59 1016.2
20260831025737 69 45 1.0 2.0 0.00 0.00 0.00 54 1016.2
20260831024737 70 45 2.0 4.0 0.00 0.00 0.00 51 1016.2
20260831023717 70 23 2.0 3.0 0.00 0.00 0.00 50 1016.3
20260831022737 71 23 3.0 6.0 0.00 0.00 0.00 49 1016.4
20260831021717 71 23 2.0 3.0 0.00 0.00 0.00 49 1016.5
20260831020717 72 23 4.0 6.0 0.00 0.00 0.00 49 1016.6
20260831015717 72 45 2.0 4.0 0.00 0.00 0.00 49 1016.5
20260831014717 72 45 3.0 5.0 0.00 0.00 0.00 48 1016.6
20260831013717 72 0 4.0 6.0 0.00 0.00 0.00 48 1016.7
20260831012757 73 23 4.0 7.0 0.00 0.00 0.00 48 1016.6
20260831011717 73 45 3.0 5.0 0.00 0.00 0.00 48 1016.8
20260831010717 73 315 3.0 6.0 0.00 0.00 0.00 49 1016.8
20260831005737 73 248 2.0 4.0 0.00 0.00 0.00 49 1016.8
20260831004737 73 315 3.0 6.0 0.00 0.00 0.00 49 1017.1
20260831003717 73 23 3.0 5.0 0.00 0.00 0.00 50 1017.1
20260831002717 73 45 3.0 4.0 0.00 0.00 0.00 50 1017.0